Tracking 25405 objects as of 26-Jan-2022
HD Live streaming from Space Station
objects crossing your sky now

LEASAT 5

Track LEASAT 5 now!
LEASAT 5 is classified as:


NORAD ID: 20410
Int'l Code: 1990-002B
Perigee: 35,951.5 km
Apogee: 36,014.2 km
Inclination: 11.5 °
Period: 1,445.8 minutes
Semi major axis: 42353 km
RCS: 12.5892 m2 (large)
Launch date: January 9, 1990
Source: United States (US)
Launch site: AIR FORCE EASTERN TEST RANGE (AFETR)

Ultra High Frequency (UHF) satellite communications services to Australia; leased at end of use by U.S. Navy to Royal Australian Navy.
aabbcc
Your satellite tracking list
Your tracking list is empty




NASA's NSSDC Master Catalog

Two Line Element Set (TLE):
1 20410U 90002B   22025.73311653 -.00000182  00000-0  00000-0 0  9990
2 20410  11.5382   0.1454 0007410  38.0613 158.8787  0.99601018102456
Source of the keplerian elements: AFSPC